TimeMST,TemperatureF,Dew PointF,Humidity,Sea Level PressureIn,VisibilityMPH,Wind Direction,Wind SpeedMPH,Gust SpeedMPH,PrecipitationIn,Events,Conditions,WindDirDegrees,DateUTC
12:56 AM,3.0,0.1,88,30.47,10.0,Calm,Calm,-,N/A,,Clear,0,2013-01-22 07:56:00
1:56 AM,2.1,-1.8,83,30.48,10.0,SW,3.5,-,N/A,,Clear,220,2013-01-22 08:56:00
2:56 AM,-2.9,-6.9,83,30.51,10.0,Calm,Calm,-,N/A,,Clear,0,2013-01-22 09:56:00
3:56 AM,5.0,1.0,84,30.47,10.0,SSE,3.5,-,N/A,,Clear,150,2013-01-22 10:56:00
4:56 AM,-1.8,-6.0,83,30.52,10.0,Calm,Calm,-,N/A,,Clear,0,2013-01-22 11:56:00
5:56 AM,-4.0,-8.0,83,30.54,10.0,Calm,Calm,-,N/A,,Clear,0,2013-01-22 12:56:00
6:56 AM,-2.9,-8.0,79,30.58,10.0,Calm,Calm,-,N/A,,Clear,0,2013-01-22 13:56:00
7:56 AM,-4.0,-8.0,83,30.58,10.0,Calm,Calm,-,N/A,,Clear,0,2013-01-22 14:56:00
8:56 AM,2.1,-1.8,83,30.59,10.0,Calm,Calm,-,N/A,,Clear,0,2013-01-22 15:56:00
9:56 AM,8.1,4.1,84,30.53,10.0,Calm,Calm,-,N/A,,Clear,0,2013-01-22 16:56:00
10:56 AM,16.2,7.2,68,30.52,10.0,NNE,4.6,-,N/A,,Clear,30,2013-01-22 17:56:00
11:56 AM,21.0,11.1,66,30.49,10.0,ENE,3.5,-,N/A,,Clear,60,2013-01-22 18:56:00
12:56 PM,20.1,10.0,65,30.47,10.0,NNW,3.5,-,N/A,,Clear,340,2013-01-22 19:56:00
1:56 PM,21.0,10.0,63,30.48,10.0,SSE,4.6,-,N/A,,Clear,150,2013-01-22 20:56:00
2:56 PM,22.1,10.0,60,30.49,10.0,South,4.6,-,N/A,,Clear,180,2013-01-22 21:56:00
3:56 PM,23.0,10.0,58,30.43,10.0,South,4.6,-,N/A,,Clear,180,2013-01-22 22:56:00
4:56 PM,12.0,3.0,67,30.52,10.0,East,4.6,-,N/A,,Clear,90,2013-01-22 23:56:00
5:56 PM,9.1,2.1,73,30.53,10.0,ESE,4.6,-,N/A,,Clear,110,2013-01-23 00:56:00
6:56 PM,9.1,1.0,70,30.53,10.0,ESE,3.5,-,N/A,,Clear,120,2013-01-23 01:56:00
7:56 PM,7.2,0.1,73,30.53,10.0,Calm,Calm,-,N/A,,Clear,0,2013-01-23 02:56:00
8:56 PM,0.1,-4.9,79,30.55,10.0,NE,4.6,-,N/A,,Clear,40,2013-01-23 03:56:00
9:56 PM,-0.9,-6.9,76,30.51,10.0,Calm,Calm,-,N/A,,Clear,0,2013-01-23 04:56:00
10:56 PM,6.1,-2.9,67,30.44,10.0,East,3.5,-,N/A,,Clear,100,2013-01-23 05:56:00
11:56 PM,1.0,-6.9,69,30.44,10.0,NNE,5.8,-,N/A,,Clear,30,2013-01-23 06:56:00